Flag for Brazil Weather past 2 weeks in Maceió, Alagoas, Brazil

Now
70 °F

Passing clouds.


Feels Like: 70 °F
Forecast: 75 / 85 °F
Wind: 6 mph from East

Location: Maceio Aeroporto

Current Time: Oct 24, 2014 at 10:05:04 PM

Latest Report: Oct 24, 2014 at 9:00 PM


Visibility: N/A

Pressure: 29.98 "Hg

Humidity: 94%

Dew point: 68 °F

Location of MaceióLocation

Historic Weather in Maceió — Graph

°F

Maceió temperature yesterday

Maximum temperature yesterday: 81 °F (at 12:00 PM)
Minimum temperature yesterday: 70 °F (at 6:00 AM)
Average temperature yesterday: 75 °F

Past Weeks' High & Low Weather Summary

 TemperatureHumidityPressure
High82 °F (Oct 13, 11:00 AM)100% (Oct 11, 12:00 AM)30.09 "Hg (Oct 11, 12:00 AM)
Low64 °F (Oct 16, 3:00 AM)55% (Oct 13, 11:00 AM)29.89 "Hg (Oct 20, 1:00 PM)
Average73 °F84%30.01 "Hg
* Reported Oct 9 8:00 PM — Oct 24 8:00 PM, Maceió, Weather by CustomWeather, © 2014

Note: Actual official high and low records may vary slightly from our data, if they occured in-between our weather recording intervals... More about our weather records

Advertising

Maceió weather history for previous 24 hours

 ConditionsComfort  
Time TempWeatherWind HumidityBarometerVisibility
8:00 PM
Oct 24
70 °FPassing clouds.7 mph94%29.98 "HgN/A
7:00 PM72 °FLight rain. Passing clouds.14 mph94%29.98 "Hg2 mi
6:00 PM72 °FScattered clouds.8 mph94%29.95 "HgN/A
5:00 PM77 °FScattered clouds.8 mph74%29.95 "HgN/A
4:00 PM79 °FScattered clouds.13 mph70%29.92 "HgN/A
3:00 PM81 °FScattered clouds.12 mph62%29.92 "HgN/A
2:00 PM81 °FScattered clouds.9 mph66%29.95 "HgN/A
1:00 PM82 °FScattered clouds.9 mph58%29.95 "HgN/A
12:00 PM81 °FBroken clouds.9 mph62%29.98 "HgN/A
11:00 AM79 °FScattered clouds.12 mph70%30.01 "HgN/A
10:00 AM77 °FPartly sunny.12 mph79%30.01 "HgN/A
9:00 AM75 °FScattered clouds.14 mph89%30.01 "HgN/A
8:00 AM77 °FScattered clouds.9 mph79%30.01 "HgN/A
7:00 AM75 °FScattered clouds.5 mph89%29.98 "HgN/A
6:00 AM68 °FPartly sunny.No wind100%29.98 "HgN/A
5:00 AM68 °FPassing clouds.3 mph100%29.95 "HgN/A
4:00 AM70 °FPassing clouds.No wind94%29.95 "HgN/A
3:00 AM70 °FPassing clouds.6 mph94%29.95 "HgN/A
2:00 AM70 °FPassing clouds.5 mph94%29.95 "HgN/A
1:00 AM70 °FPassing clouds.3 mph94%29.98 "HgN/A
12:00 AM70 °FPassing clouds.No wind100%29.98 "HgN/A
11:00 PM
Oct 23
70 °FPassing clouds.3 mph94%30.01 "HgN/A
10:00 PM70 °FPassing clouds.3 mph94%30.04 "HgN/A
Weather by CustomWeather, © 2014

See weather overviewHow to use our weather pages